Temperature
28 29 29 29 29 29 29 30 30 30 30 29 27 27 26 25 25 24 24 23 23 22 22 21 21 21 21 21 21 20 20 20 20 20 20 20 20 19 19 19 19 19 18 18
27 28 28 28 28 28 28 29 29 29 29 27 26 25 24 24 24 23 23 23 22 22 21 21 21 21 21 20 20 20 20 20 19 19 19 19 19 19 19 19 19 18 18 18
27 27 27 27 28 28 28 28 28 28 27 26 25 24 24 23 23 23 22 22 22 21 21 21 20 20 20 20 20 19 19 19 19 19 19 19 19 19 18 19 19 18 18 17
26 25 25 27 27 27 27 27 27 26 25 25 24 23 22 22 22 22 21 21 21 21 20 20 20 20 20 20 19 19 19 19 19 19 19 19 18 18 18 18 18 18 18 17
25 25 26 26 25 26 26 25 25 25 24 23 22 23 23 21 21 20 20 20 19 20 20 20 20 19 19 19 19 19 19 19 19 19 18 18 18 18 18 18 18 17 17 17
24 24 25 25 25 24 25 24 24 23 23 22 22 24 24 20 19 19 18 18 19 19 19 19 19 19 19 19 19 19 19 18 19 19 18 18 18 18 17 17 17 17 17 16
23 24 25 24 23 23 24 23 22 22 22 22 22 22 20 19 18 18 17 18 18 18 18 18 18 18 18 18 18 18 18 18 18 18 18 18 17 17 17 17 16 16 16 16
23 23 23 22 22 23 22 20 20 20 20 20 19 18 18 18 17 17 17 17 17 17 17 17 17 17 18 18 18 17 18 18 18 18 17 17 17 17 16 16 16 16 16 16
22 22 20 19 20 19 19 19 19 19 19 18 18 18 17 17 17 17 17 17 17 17 17 17 17 17 17 17 17 17 17 17 17 17 17 17 17 16 16 16 16 15 15 15
20 20 19 19 19 18 18 18 18 18 18 18 18 17 17 17 17 16 16 16 16 16 16 16 16 16 16 16 17 16 16 16 16 16 16 16 16 16 16 15 15 15 15 15
19 19 19 18 18 17 17 17 17 17 17 17 17 17 16 16 16 16 16 16 15 15 15 15 15 15 15 16 16 16 16 16 16 16 16 15 15 15 15 15 15 15 15 15
19 18 18 18 17 17 16 16 16 16 16 16 16 16 16 16 15 15 15 15 15 15 15 15 15 15 15 15 15 15 15 15 15 15 15 15 15 15 15 15 14 14 14 14
16 16 16 16 16 16 16 16 16 16 15 15 15 15 15 15 15 15 15 14 14 14 14 14 14 14 14 15 15 15 14 14 15 15 15 15 15 14 14 14 14 14 14 14
15 14 15 15 15 15 15 15 15 15 15 15 15 14 14 14 14 14 14 14 14 14 13 13 13 13 14 14 14 14 14 14 14 14 14 14 14 14 14 13 13 13 13 13
14 14 14 14 14 14 14 14 14 14 14 14 14 14 14 14 13 13 13 13 13 13 13 13 13 13 13 13 13 13 14 14 14 14 13 13 13 13 13 13 13 12 12 12
14 14 14 14 13 14 14 14 14 14 14 14 13 13 13 13 13 12 12 12 12 12 12 12 12 12 12 12 12 13 13 13 13 13 13 13 12 12 12 12 12 12 12 11
13 13 13 13 13 13 13 13 13 13 13 13 13 12 12 12 12 12 12 12 11 11 11 11 11 11 12 12 12 12 12 12 12 12 12 12 12 12 12 12 12 11 11 11
12 12 12 12 13 13 12 12 12 12 12 12 12 11 11 11 11 11 11 11 11 11 11 11 11 11 11 11 11 11 11 12 11 11 11 11 11 11 11 11 11 11 10 10
12 12 12 12 12 12 12 11 11 11 11 11 11 11 10 10 10 10 10 10 10 10 10 10 11 11 11 11 11 11 11 11 11 11 11 10 11 10 10 10 10 10 10 9
11 11 11 11 11 11 11 11 11 11 10 10 10 10 10 10 10 10 10 9 10 10 10 10 10 10 10 10 10 10 10 10 10 10 10 10 10 10 10 9 9 9 9 9
11 11 11 11 11 11 10 10 10 10 10 10 10 10 9 9 9 9 9 9 9 9 9 9 9 10 10 10 10 10 10 10 10 9 9 9 9 9 9 9 9 8 8 8
10 10 10 10 10 10 10 10 10 10 10 9 9 9 9 9 9 9 9 9 9 9 9 9 9 9 9 9 9 9 9 9 9 9 9 9 8 8 8 8 8 8 8 8
10 10 9 10 9 9 9 9 9 9 9 9 9 9 9 9 8 8 8 8 8 8 8 8 8 9 9 9 9 9 9 9 9 9 8 8 8 8 8 7 7 7 7 7
9 9 9 9 9 9 9 9 9 9 9 9 9 8 8 8 8 8 8 8 8 8 8 8 8 8 8 8 8 8 8 8 8 8 8 8 7 7 7 7 7 7 7 6
9 9 9 9 9 9 9 9 9 9 9 9 8 8 8 8 8 8 8 8 8 8 7 8 8 8 8 8 8 8 8 8 8 7 7 7 7 7 7 7 6 6 6 6
9 9 9 8 8 8 9 9 9 8 8 8 8 8 8 8 8 8 7 7 8 7 7 7 7 7 7 7 7 7 7 7 7 7 7 7 7 6 6 6 6 6 6 5
9 8 8 8 8 8 8 8 8 8 8 8 8 8 8 8 8 8 7 7 7 7 7 7 7 7 7 7 7 7 7 7 6 6 6 6 6 6 6 5 5 5 5 5
Wind_Speed
10 7 7 10 10 10 12 12 12 10 7 3 2 1 1 1 2 3 4 4 4 4 5 5 5 5 5 6 6 6 7 8 8 8 7 7 7 7 7 7 8 7 7 7
10 9 9 10 10 10 11 10 10 9 6 1 0 1 1 1 2 2 2 3 3 3 3 3 4 5 6 5 5 6 6 7 6 7 7 7 7 7 7 7 7 7 7 7
11 10 10 13 11 11 10 8 9 9 3 1 1 1 1 1 1 1 1 2 2 2 2 2 3 4 5 5 5 5 5 5 6 6 6 7 7 7 7 7 6 6 6 6
9 8 15 6 2 5 7 5 3 1 1 1 1 0 1 2 2 3 3 2 1 1 1 1 2 3 4 4 5 5 5 5 5 6 6 6 6 6 6 6 5 6 6 6
9 12 11 5 4 5 6 5 2 2 1 1 0 2 4 3 4 4 4 3 2 2 1 1 1 1 3 4 4 5 5 5 5 5 5 5 5 5 5 5 5 5 5 5
9 12 11 4 3 1 4 7 2 1 2 2 2 4 1 4 5 4 4 4 3 2 2 2 2 1 2 2 3 3 4 4 4 4 4 4 4 4 4 4 5 4 4 5
12 12 7 2 1 4 8 1 2 1 2 3 3 4 2 3 4 4 4 3 3 2 2 2 1 1 1 1 2 2 2 2 3 3 4 4 4 4 3 4 4 4 4 4
11 13 7 4 1 2 3 4 3 2 3 3 3 2 2 2 3 4 4 4 4 3 2 2 1 0 1 1 1 1 2 2 2 2 2 3 3 4 5 5 5 4 5 5
4 3 3 2 2 3 3 4 4 4 3 2 2 2 3 3 3 3 4 4 4 3 2 2 2 1 1 1 2 2 2 3 3 3 2 3 3 4 5 5 5 5 5 5
4 2 2 2 3 3 4 4 4 4 3 3 3 3 4 4 4 4 4 4 4 3 2 2 2 2 2 2 3 3 3 3 3 3 3 2 3 3 4 4 4 5 5 4
6 4 4 3 4 4 4 3 3 3 3 4 4 4 4 4 4 4 4 5 4 4 3 3 3 3 3 2 2 2 2 2 3 3 3 2 2 1 1 0 2 3 3 3
5 3 5 5 4 4 4 3 3 4 4 4 4 5 5 4 4 4 4 5 4 4 4 4 3 3 3 3 2 3 3 3 3 2 2 2 2 2 5 3 4 3 4 3
6 6 7 7 6 5 4 4 4 4 5 5 5 5 5 4 4 5 5 5 5 5 5 4 4 4 3 3 2 3 3 3 3 2 2 3 3 3 2 2 4 3 3 2
5 5 5 5 6 5 5 5 5 5 5 6 5 4 4 4 4 5 5 5 5 5 5 5 4 3 3 3 2 2 3 3 3 3 3 3 3 3 2 3 2 1 2 3
4 5 5 5 6 6 5 5 5 5 5 4 3 3 3 4 4 5 4 4 4 4 4 3 3 3 3 3 3 3 3 3 2 2 2 2 3 2 2 2 2 2 2 3
5 5 5 5 4 4 4 5 5 5 4 3 3 3 3 3 3 4 4 3 3 3 3 3 3 3 2 2 2 2 1 1 2 2 2 3 3 3 2 2 2 2 2 2
4 5 5 5 4 3 3 3 3 3 3 2 2 2 3 3 3 3 2 2 2 2 2 2 2 2 2 2 2 2 1 1 3 2 2 2 2 3 2 2 2 2 2 3
4 5 5 5 4 3 3 3 3 2 2 2 2 2 3 3 3 3 3 3 2 3 3 3 2 2 1 1 1 2 2 2 2 2 2 1 2 2 2 3 3 3 3 4
3 3 3 3 2 2 3 3 3 3 3 2 2 3 3 2 2 2 3 3 3 3 4 4 3 2 1 1 1 2 1 1 2 2 2 2 2 2 2 2 2 2 3 3
2 2 2 2 1 2 2 3 2 2 3 2 2 2 3 3 2 2 2 2 3 3 3 4 3 2 1 1 2 1 1 1 1 2 2 2 2 2 2 2 2 2 2 3
3 3 3 2 3 3 2 2 2 2 2 2 2 1 2 2 2 2 2 2 3 4 4 3 2 2 1 1 1 0 1 2 2 2 2 2 3 3 3 3 3 3 3 3
3 3 3 3 3 2 2 2 2 2 2 2 1 1 2 2 2 3 4 3 3 4 3 2 3 3 3 2 0 1 1 2 2 3 3 3 3 3 3 3 3 3 3 3
2 2 2 2 2 2 2 2 2 2 2 2 3 3 3 3 2 2 3 3 3 3 3 4 5 5 4 1 2 2 3 3 3 3 3 3 3 3 3 3 3 3 3 3
2 1 1 1 2 2 2 3 3 3 3 3 3 3 3 3 3 3 3 4 4 4 4 5 6 5 3 3 3 3 3 3 3 3 3 3 3 3 3 3 3 3 3 3
2 2 2 2 2 2 3 3 4 4 4 4 4 4 4 3 3 3 3 4 4 3 4 4 4 4 3 4 3 3 3 4 3 3 3 3 3 3 3 3 3 3 3 3
2 2 2 3 3 2 2 2 3 3 3 3 3 3 3 3 3 2 3 3 4 4 3 3 3 2 3 4 4 3 3 3 3 3 4 3 3 3 3 3 4 3 4 4
2 1 1 2 2 2 2 2 2 2 2 3 3 3 3 3 3 3 3 3 3 3 3 3 3 3 4 4 4 4 3 3 3 3 3 3 3 4 4 4 4 3 3 4
Wind_Direction
251 249 233 229 225 223 235 250 253 247 241 248 244 257 19 65 103 119 127 132 139 148 148 161 167 173 180 183 183 188 191 193 194 197 198 200 199 199 198 201 205 204 208 207
235 231 228 235 235 232 237 245 249 247 239 298 34 112 87 87 110 114 113 114 124 143 155 170 174 176 176 178 180 184 192 193 192 195 197 198 199 199 199 202 208 205 210 211
234 223 228 233 229 229 230 236 247 248 241 149 144 103 81 69 68 87 76 84 100 123 159 179 184 183 180 177 177 180 190 192 190 195 199 201 201 197 198 201 203 203 211 214
238 223 234 224 175 222 225 228 245 250 192 204 219 244 101 78 57 48 37 30 34 31 103 155 172 176 182 176 172 178 186 192 193 197 201 200 201 200 200 199 200 204 210 214
237 231 232 200 192 213 218 214 206 223 187 153 68 183 146 71 40 31 21 8 5 5 27 64 93 160 181 181 175 177 182 191 195 193 198 197 199 204 201 198 200 204 204 215
237 243 239 194 134 226 235 216 145 192 194 195 219 237 187 26 6 5 7 2 2 21 40 46 45 72 181 176 173 188 194 193 187 181 188 194 193 202 204 203 203 200 205 217
235 243 242 58 100 209 226 212 51 317 251 246 266 314 337 337 349 357 360 359 6 20 39 37 33 40 193 178 181 192 195 182 177 184 196 199 188 188 202 219 214 207 213 219
235 242 234 63 165 236 347 4 336 305 287 286 310 343 343 344 349 348 348 355 1 4 6 358 348 289 213 209 203 191 182 176 177 186 205 197 188 197 201 211 214 212 220 223
254 261 52 31 341 339 325 317 314 303 296 286 279 291 308 320 327 333 336 336 336 336 333 329 316 290 271 247 222 205 190 193 196 196 199 210 199 208 210 208 218 221 223 224
257 241 272 294 306 308 310 300 298 292 284 279 275 281 293 304 310 318 321 318 319 317 319 324 318 299 281 269 233 216 203 201 199 197 201 201 211 215 219 220 223 230 231 234
252 258 268 268 292 303 308 297 290 289 288 283 279 279 285 289 294 304 304 300 300 304 304 303 305 305 305 298 257 226 219 219 226 223 205 204 200 246 234 264 292 267 259 255
269 284 284 287 296 296 290 278 272 277 285 287 285 282 280 282 285 288 287 287 285 283 281 285 293 301 307 301 272 244 237 236 239 233 207 202 178 131 58 64 52 29 357 319
287 297 292 288 285 284 281 276 275 278 281 285 288 286 281 278 274 275 280 282 281 275 274 279 280 283 286 290 273 242 243 244 244 235 218 208 201 198 182 112 102 87 65 39
290 286 281 281 283 281 277 278 279 280 279 280 282 282 276 276 279 284 286 284 280 274 274 274 272 274 281 277 255 229 234 233 237 227 221 217 213 215 217 206 191 133 96 105
289 280 280 286 284 280 274 271 270 271 278 284 283 281 283 285 288 291 291 288 287 285 283 280 280 294 300 283 260 237 234 235 236 230 219 214 216 211 203 203 184 150 139 125
293 287 290 295 293 284 275 267 268 270 271 271 274 285 294 299 302 304 299 296 289 293 300 298 297 302 299 290 285 270 248 206 226 228 221 213 207 207 201 188 171 144 132 115
293 287 291 295 294 297 298 296 289 283 273 270 289 301 303 306 319 333 333 335 337 333 327 323 313 309 305 294 283 268 249 198 193 213 213 215 205 201 191 171 151 136 114 84
288 284 282 287 292 305 316 316 313 308 305 309 316 311 309 313 323 340 349 353 345 335 338 337 325 316 320 308 293 264 236 206 195 195 182 189 195 189 172 154 143 132 125 113
319 310 302 297 297 316 314 319 325 331 334 333 330 323 317 317 328 337 346 349 346 344 338 338 341 335 332 345 291 229 218 193 178 167 152 156 172 164 149 138 127 127 124 118
354 5 6 359 348 335 320 323 327 331 331 331 331 331 342 344 340 345 356 9 358 344 344 349 347 335 319 317 283 216 191 171 160 161 160 154 144 137 133 126 124 124 123 124
14 21 22 9 3 357 348 335 329 331 333 341 346 349 349 343 353 6 13 22 9 359 354 346 347 342 338 333 267 213 153 148 145 138 126 121 120 121 121 124 126 124 126 125
21 23 23 15 4 357 356 346 339 343 355 9 14 34 44 42 51 53 42 30 20 349 354 18 21 10 342 306 160 140 138 139 135 127 125 125 127 128 125 122 124 124 128 126
26 24 15 1 342 340 351 357 1 12 27 40 50 52 55 49 44 52 48 33 38 10 25 34 20 10 343 18 80 96 99 103 107 110 113 111 113 120 120 123 126 124 123 123
41 31 15 3 351 1 15 23 35 50 60 63 63 69 77 73 66 63 67 62 34 23 44 38 24 10 359 54 64 72 78 87 95 101 106 106 111 115 121 129 123 115 116 115
42 34 37 30 27 30 44 62 74 77 78 72 69 70 74 77 75 67 63 64 60 44 44 46 34 14 37 48 59 66 70 70 76 88 99 102 107 111 112 111 110 109 106 108
60 44 41 35 33 32 38 59 75 79 79 79 72 69 74 76 73 69 62 59 61 57 45 40 41 44 53 56 60 67 77 86 83 81 80 85 90 93 96 101 104 103 106 106
61 63 71 67 62 54 55 67 80 84 81 79 75 64 61 64 60 57 57 54 58 59 53 49 51 54 59 63 66 67 71 74 77 79 82 84 87 93 101 101 96 98 103 105
Height
1473 1469 1470 1472 1474 1475 1476 1474 1476 1472 1473 1476 1479 1483 1485 1487 1488 1489 1491 1492 1493 1494 1495 1497 1499 1500 1502 1504 1506 1507 1509 1511 1512 1514 1515 1517 1518 1518 1519 1520 1520 1521 1522 1522
1478 1472 1472 1475 1473 1474 1475 1473 1472 1472 1476 1478 1482 1485 1486 1487 1488 1489 1491 1491 1493 1494 1495 1496 1497 1498 1500 1501 1503 1504 1506 1508 1509 1511 1512 1513 1514 1514 1515 1516 1517 1517 1518 1518
1479 1472 1475 1479 1472 1472 1473 1472 1473 1474 1477 1480 1483 1485 1487 1488 1489 1489 1490 1491 1492 1493 1494 1494 1495 1496 1498 1499 1500 1502 1504 1505 1506 1507 1509 1509 1510 1511 1511 1512 1513 1514 1515 1515
1476 1481 1490 1471 1469 1470 1472 1474 1474 1477 1480 1482 1485 1487 1489 1490 1490 1490 1490 1491 1492 1492 1493 1493 1494 1495 1496 1497 1498 1499 1500 1502 1503 1505 1505 1506 1507 1507 1508 1509 1510 1511 1511 1512
1478 1479 1475 1473 1472 1473 1474 1477 1478 1479 1481 1484 1486 1486 1487 1489 1490 1491 1491 1491 1491 1491 1491 1491 1492 1493 1494 1495 1496 1496 1497 1499 1500 1501 1502 1503 1503 1504 1505 1506 1506 1507 1508 1508
1480 1482 1481 1472 1473 1476 1477 1480 1480 1481 1483 1485 1485 1482 1484 1489 1490 1490 1490 1490 1489 1489 1489 1490 1489 1491 1492 1492 1493 1494 1495 1496 1496 1497 1498 1499 1500 1501 1502 1502 1503 1503 1504 1505
1479 1479 1471 1474 1476 1477 1483 1481 1483 1483 1484 1485 1486 1486 1488 1489 1489 1490 1489 1489 1488 1488 1488 1488 1488 1489 1490 1490 1491 1492 1492 1492 1493 1494 1495 1496 1496 1497 1498 1500 1500 1498 1501 1501
1477 1480 1478 1478 1478 1479 1481 1484 1484 1484 1485 1486 1487 1488 1488 1488 1489 1489 1489 1488 1487 1487 1487 1487 1486 1487 1487 1487 1488 1489 1489 1489 1490 1490 1492 1493 1493 1494 1494 1496 1497 1496 1497 1497
1475 1478 1481 1482 1482 1484 1485 1485 1485 1485 1486 1486 1487 1487 1488 1488 1488 1488 1487 1487 1487 1486 1485 1485 1484 1484 1484 1485 1485 1486 1486 1486 1487 1487 1487 1488 1489 1491 1491 1491 1493 1494 1495 1494
1480 1479 1481 1483 1483 1484 1485 1485 1485 1485 1486 1486 1486 1486 1486 1486 1486 1485 1485 1485 1485 1484 1483 1482 1482 1482 1482 1482 1482 1483 1483 1483 1483 1484 1484 1485 1485 1486 1488 1488 1489 1491 1491 1490
1480 1480 1482 1482 1484 1484 1484 1484 1484 1484 1485 1485 1485 1485 1485 1484 1484 1483 1483 1483 1482 1481 1481 1480 1480 1480 1480 1480 1479 1480 1480 1480 1480 1481 1482 1482 1482 1483 1484 1485 1486 1487 1487 1487
1478 1482 1482 1482 1483 1483 1483 1482 1483 1483 1483 1483 1483 1482 1482 1481 1481 1481 1480 1480 1479 1479 1479 1478 1478 1477 1476 1476 1476 1477 1477 1477 1478 1479 1479 1479 1479 1480 1480 1481 1482 1483 1483 1483
1483 1482 1482 1482 1481 1481 1481 1481 1481 1481 1480 1480 1480 1480 1479 1479 1478 1478 1478 1477 1476 1476 1475 1475 1474 1474 1473 1473 1473 1474 1474 1474 1475 1476 1476 1476 1476 1477 1477 1478 1478 1478 1478 1479
1482 1482 1480 1480 1479 1479 1479 1478 1478 1478 1478 1477 1477 1476 1476 1476 1475 1475 1474 1473 1473 1472 1472 1471 1471 1470 1470 1470 1470 1470 1471 1471 1472 1472 1473 1473 1474 1474 1475 1474 1475 1475 1475 1475
1481 1480 1479 1478 1477 1476 1476 1476 1475 1475 1475 1475 1475 1474 1474 1473 1472 1471 1470 1470 1469 1469 1468 1467 1467 1466 1466 1466 1466 1466 1467 1468 1469 1469 1470 1470 1471 1471 1471 1471 1471 1471 1472 1473
1479 1478 1477 1475 1473 1473 1473 1473 1472 1472 1472 1472 1472 1472 1471 1470 1469 1468 1467 1467 1466 1465 1464 1464 1463 1463 1463 1462 1463 1463 1464 1465 1465 1466 1467 1467 1467 1468 1468 1468 1469 1469 1470 1470
1477 1475 1474 1473 1472 1472 1471 1471 1471 1470 1470 1470 1470 1469 1469 1468 1466 1465 1464 1464 1463 1462 1461 1460 1460 1460 1460 1460 1460 1461 1462 1462 1463 1464 1464 1465 1464 1465 1465 1465 1465 1466 1467 1467
1475 1474 1473 1473 1472 1471 1470 1470 1470 1469 1469 1468 1468 1467 1467 1466 1465 1463 1463 1462 1461 1460 1459 1458 1458 1457 1457 1457 1457 1459 1460 1459 1460 1462 1462 1462 1462 1462 1462 1463 1463 1463 1464 1466
1473 1472 1471 1471 1471 1470 1470 1470 1469 1468 1468 1467 1467 1466 1465 1464 1463 1462 1461 1460 1459 1458 1458 1457 1456 1455 1455 1455 1456 1457 1457 1457 1458 1459 1459 1459 1459 1460 1460 1460 1461 1462 1463 1464
1472 1471 1470 1470 1470 1470 1469 1469 1468 1467 1467 1466 1466 1465 1464 1463 1462 1461 1460 1458 1458 1457 1456 1455 1454 1454 1453 1453 1454 1454 1455 1455 1455 1456 1457 1457 1457 1457 1458 1459 1459 1460 1462 1462
1472 1471 1470 1470 1469 1469 1468 1468 1467 1467 1466 1465 1465 1464 1463 1462 1461 1460 1459 1458 1457 1456 1455 1454 1453 1452 1452 1452 1452 1453 1453 1453 1453 1454 1454 1455 1456 1456 1457 1458 1458 1459 1460 1461
1471 1471 1470 1469 1469 1468 1468 1467 1467 1466 1466 1465 1464 1464 1463 1462 1461 1460 1459 1458 1457 1456 1455 1454 1453 1451 1451 1451 1451 1451 1451 1452 1452 1452 1453 1454 1455 1455 1456 1457 1457 1458 1459 1460
1471 1470 1470 1469 1469 1468 1467 1467 1466 1466 1465 1465 1464 1464 1463 1462 1461 1461 1459 1459 1457 1456 1455 1453 1452 1451 1451 1451 1451 1451 1451 1451 1451 1452 1453 1453 1454 1454 1454 1456 1457 1458 1459 1460
1471 1470 1470 1469 1468 1468 1467 1466 1466 1465 1465 1465 1464 1464 1464 1463 1462 1462 1461 1459 1458 1457 1456 1454 1453 1452 1451 1451 1451 1451 1451 1452 1452 1452 1452 1453 1454 1454 1455 1456 1457 1458 1459 1459
1471 1470 1470 1469 1468 1468 1467 1467 1466 1466 1466 1466 1466 1466 1465 1465 1464 1463 1462 1461 1460 1458 1457 1456 1454 1453 1452 1452 1452 1452 1452 1452 1452 1452 1453 1453 1454 1454 1455 1456 1457 1458 1459 1459
1471 1471 1470 1470 1469 1468 1468 1467 1467 1467 1467 1467 1467 1467 1467 1466 1465 1464 1464 1463 1462 1460 1459 1457 1456 1455 1454 1454 1453 1453 1453 1452 1452 1452 1453 1453 1454 1453 1454 1455 1456 1457 1458 1459
1472 1472 1471 1470 1470 1470 1469 1469 1469 1469 1469 1469 1468 1468 1468 1467 1466 1466 1465 1464 1463 1462 1461 1459 1458 1457 1457 1456 1455 1454 1454 1454 1453 1453 1453 1454 1454 1454 1454 1455 1456 1457 1458 1458